TimeEST,TemperatureF,Dew PointF,Humidity,Sea Level PressureIn,VisibilityMPH,Wind Direction,Wind SpeedMPH,Gust SpeedMPH,PrecipitationIn,Events,Conditions,WindDirDegrees,DateUTC
12:00 AM,60,59,94,29.64,,SW,1.2,,,,,230,2013-11-23 13:00:00
12:00 AM,59.0,59.0,100,29.62,6.2,SW,1.2,-,N/A,,Unknown,230,2013-11-23 13:00:00
12:30 AM,59.0,57.2,94,29.62,6.2,West,2.3,-,N/A,,Unknown,260,2013-11-23 13:30:00
1:00 AM,59.0,59.0,100,29.62,6.2,WNW,4.6,-,N/A,,Unknown,300,2013-11-23 14:00:00
1:30 AM,59.0,59.0,100,29.62,6.2,NNW,5.8,-,N/A,,Unknown,330,2013-11-23 14:30:00
2:00 AM,60,59,95,29.63,,NW,6.9,,,,,320,2013-11-23 15:00:00
2:00 AM,60.8,59.0,94,29.62,6.2,NW,6.9,-,N/A,,Unknown,320,2013-11-23 15:00:00
2:30 AM,60.8,59.0,94,29.62,6.2,NW,8.1,-,N/A,,Unknown,310,2013-11-23 15:30:00
3:00 AM,59,59,99,29.63,,NW,6.9,,,,,310,2013-11-23 16:00:00
3:00 AM,59.0,59.0,100,29.62,6.2,NW,6.9,-,N/A,,Unknown,310,2013-11-23 16:00:00
3:30 AM,59.0,57.2,94,29.62,6.2,WNW,8.1,-,N/A,,Unknown,290,2013-11-23 16:30:00
4:00 AM,60.8,59.0,94,29.62,6.2,WNW,9.2,-,N/A,,Unknown,300,2013-11-23 17:00:00
4:30 AM,59.0,59.0,100,29.62,6.2,WNW,8.1,-,N/A,,Unknown,300,2013-11-23 17:30:00
5:00 AM,60,58,93,29.65,,NW,10.4,,,,,310,2013-11-23 18:00:00
5:00 AM,59.0,59.0,100,29.65,6.2,NW,10.4,-,N/A,,Unknown,310,2013-11-23 18:00:00
5:30 AM,59.0,57.2,94,29.65,6.2,WNW,10.4,-,N/A,,Unknown,290,2013-11-23 18:30:00
6:00 AM,60,58,92,29.68,9,WNW,10.4,,,,Haze,290,2013-11-23 19:00:00
6:00 AM,59.0,59.0,100,29.65,6.2,WNW,10.4,-,N/A,,Partly Cloudy,290,2013-11-23 19:00:00
6:30 AM,60.8,59.0,94,29.68,6.2,West,9.2,-,N/A,,Partly Cloudy,280,2013-11-23 19:30:00
7:00 AM,62.6,60.8,94,29.68,6.2,WNW,8.1,-,N/A,,Mostly Cloudy,290,2013-11-23 20:00:00
7:30 AM,64.4,59.0,83,29.71,6.2,West,8.1,-,N/A,,Scattered Clouds,270,2013-11-23 20:30:00
8:00 AM,66,60,76,29.72,,WSW,10.4,,,,,240,2013-11-23 21:00:00
8:00 AM,66.2,60.8,83,29.71,6.2,WSW,10.4,-,N/A,,Scattered Clouds,240,2013-11-23 21:00:00
8:30 AM,68.0,60.8,78,29.71,6.2,SW,10.4,-,N/A,,Partly Cloudy,230,2013-11-23 21:30:00
9:00 AM,69,58,60,29.73,9,SW,11.5,,,,Haze,220,2013-11-23 22:00:00
9:00 AM,69.8,59.0,68,29.71,6.2,SW,11.5,-,N/A,,Partly Cloudy,220,2013-11-23 22:00:00
9:30 AM,69.8,55.4,60,29.71,6.2,SSW,11.5,-,N/A,,Scattered Clouds,210,2013-11-23 22:30:00
10:00 AM,71.6,57.2,60,29.71,6.2,SSW,10.4,-,N/A,,Scattered Clouds,210,2013-11-23 23:00:00
10:30 AM,71.6,59.0,64,29.71,6.2,South,12.7,-,N/A,,Scattered Clouds,170,2013-11-23 23:30:00
11:00 AM,71,54,44,29.72,,South,12.7,,,,,170,2013-11-24 00:00:00
11:00 AM,71.6,53.6,53,29.71,6.2,South,12.7,-,N/A,,Scattered Clouds,170,2013-11-24 00:00:00
11:30 AM,71.6,55.4,57,29.71,6.2,South,12.7,-,N/A,,Scattered Clouds,170,2013-11-24 00:30:00
12:00 PM,72,54,43,29.71,12,South,13.8,,,,Haze,170,2013-11-24 01:00:00
12:00 PM,71.6,53.6,53,29.71,6.2,South,13.8,-,N/A,,Scattered Clouds,170,2013-11-24 01:00:00
12:30 PM,71.6,53.6,53,29.68,6.2,SSE,13.8,-,N/A,,Scattered Clouds,160,2013-11-24 01:30:00
1:00 PM,73.4,55.4,53,29.68,6.2,SSE,13.8,-,N/A,,Partly Cloudy,150,2013-11-24 02:00:00
1:30 PM,73.4,53.6,50,29.68,6.2,SSE,13.8,-,N/A,,Partly Cloudy,150,2013-11-24 02:30:00
2:00 PM,74,53,36,29.68,,SE,17.3,,,,,140,2013-11-24 03:00:00
2:00 PM,73.4,51.8,47,29.65,6.2,SE,17.3,-,N/A,,Partly Cloudy,140,2013-11-24 03:00:00
2:30 PM,73.4,51.8,47,29.65,6.2,SSE,17.3,-,N/A,,Partly Cloudy,150,2013-11-24 03:30:00
3:00 PM,73,54,40,29.67,12,SE,19.6,,,,Haze,140,2013-11-24 04:00:00
3:00 PM,73.4,53.6,50,29.65,6.2,SE,19.6,-,N/A,,Scattered Clouds,140,2013-11-24 04:00:00
3:30 PM,75.2,53.6,47,29.65,6.2,SE,17.3,-,N/A,,Unknown,140,2013-11-24 04:30:00
4:00 PM,73.4,55.4,53,29.65,6.2,SE,17.3,-,N/A,,Unknown,140,2013-11-24 05:00:00
4:30 PM,73.4,55.4,53,29.65,6.2,ESE,13.8,-,N/A,,Scattered Clouds,120,2013-11-24 05:30:00
5:00 PM,72,56,47,29.66,,SE,15.0,,,,,130,2013-11-24 06:00:00
5:00 PM,71.6,55.4,57,29.65,6.2,SE,15.0,-,N/A,,Unknown,130,2013-11-24 06:00:00
5:30 PM,71.6,53.6,53,29.65,6.2,SE,16.1,-,N/A,,Unknown,130,2013-11-24 06:30:00
6:00 PM,71,55,47,29.67,,SE,15.0,,,,,130,2013-11-24 07:00:00
6:00 PM,71.6,55.4,57,29.65,6.2,SE,15.0,-,N/A,,Scattered Clouds,130,2013-11-24 07:00:00
6:30 PM,71.6,57.2,60,29.68,6.2,SE,12.7,-,N/A,,Scattered Clouds,140,2013-11-24 07:30:00
7:00 PM,69.8,57.2,64,29.68,6.2,SSE,10.4,-,N/A,,Unknown,150,2013-11-24 08:00:00
7:30 PM,68.0,57.2,68,29.71,6.2,SSE,10.4,-,N/A,,Mostly Cloudy,150,2013-11-24 08:30:00
8:00 PM,67,58,65,29.73,,SSE,8.1,,,,,150,2013-11-24 09:00:00
8:00 PM,66.2,57.2,73,29.71,6.2,SSE,8.1,-,N/A,,Scattered Clouds,150,2013-11-24 09:00:00
8:30 PM,66.2,59.0,78,29.74,6.2,SE,6.9,-,N/A,,Mostly Cloudy,140,2013-11-24 09:30:00
9:00 PM,67,59,67,29.76,,South,6.9,,,,,170,2013-11-24 10:00:00
9:00 PM,66.2,59.0,78,29.74,6.2,South,6.9,-,N/A,,Mostly Cloudy,170,2013-11-24 10:00:00
9:30 PM,68.0,59.0,73,29.77,6.2,South,6.9,-,N/A,,Overcast,170,2013-11-24 10:30:00
10:00 PM,66.2,59.0,78,29.77,6.2,South,5.8,-,N/A,,Overcast,180,2013-11-24 11:00:00
10:30 PM,66.2,59.0,78,29.77,6.2,South,5.8,-,N/A,,Mostly Cloudy,180,2013-11-24 11:30:00
11:00 PM,64,59,79,29.78,,South,5.8,,,,,190,2013-11-24 12:00:00
11:00 PM,64.4,59.0,83,29.77,6.2,South,5.8,-,N/A,,Mostly Cloudy,190,2013-11-24 12:00:00
11:30 PM,64.4,59.0,83,29.77,6.2,South,5.8,-,N/A,,Overcast,180,2013-11-24 12:30:00